Weather History for EGLC - July, 2013

Change the Weather History Date:

Thursday, July 18, 2013

  Actual Average Record
Temperature  
Mean Temperature 71 °F -  
Max Temperature 80 °F - - ()
Min Temperature 62 °F - - ()
Cooling Degree Days 6    
Growing Degree Days 21 (Base 50)    
Moisture  
Dew Point 56 °F    
Average Humidity 61    
Maximum Humidity 82    
Minimum Humidity 37    
Precipitation  
Precipitation 0.00 in - - ()
Sea Level Pressure  
Sea Level Pressure 30.31 in    
Wind  
Wind Speed 7 mph ()    
Max Wind Speed 15 mph    
Max Gust Speed -    
Visibility 6.1 miles    
Events      
T = Trace of Precipitation, MM = Missing Value Source: Averaged Metar Reports

Daily Weather History Graph

Daily Weather History Graph

Search for Another Location

Airport or City:

Trip Planner

Search our weather history database for the weather conditions in past years. The results will help you decide how hot, cold, wet, or windy it might be!

Date:

Astronomy

Jul. 18, 2013 Rise Set
Actual Time 5:03 AM BST 9:07 PM BST
Civil Twilight 4:20 AM BST 9:51 PM BST
Nautical Twilight 3:17 AM BST 10:53 PM BST
Astronomical Twilight 1:38 AM BST 12:33 AM BST
Moon 4:42 PM BST (7/18) 12:52 AM BST (7/18)
Length of Visible Light 17h 31m
Length of Day
16h 03m
Waxing Gibbous, 75% of the Moon is Illuminated
Jul 18
Waxing Gibbous
Jul 22
Full
Jul 29
Last Quarter
Aug 6
New
Aug 14
First Quarter

Hourly Weather History & Observations

Time (BST) Temp. Heat Index Dew Point Humidity Pressure Visibility Wind Dir Wind Speed Gust Speed Precip Events Conditions
12:20 AM 68.0 °F - 57.2 °F 68% 30.30 in 6.2 mi East 8.1 mph - N/A   Unknown
12:50 AM 68.0 °F - 57.2 °F 68% 30.30 in 6.2 mi East 9.2 mph - N/A   Unknown
1:20 AM 64.4 °F - 57.2 °F 77% 30.30 in 6.2 mi East 6.9 mph - N/A   Unknown
1:50 AM 64.4 °F - 57.2 °F 77% 30.30 in 6.2 mi East 6.9 mph - N/A   Unknown
2:20 AM 66.2 °F - 59.0 °F 78% 30.30 in 5.6 mi East 9.2 mph - N/A   Unknown
2:50 AM 64.4 °F - 57.2 °F 77% 30.30 in 6.2 mi East 6.9 mph - N/A   Unknown
3:20 AM 64.4 °F - 57.2 °F 77% 30.30 in 5.6 mi ENE 5.8 mph - N/A   Unknown
3:50 AM 64.4 °F - 57.2 °F 77% 30.30 in 6.2 mi ENE 5.8 mph - N/A   Unknown
4:20 AM 62.6 °F - 57.2 °F 82% 30.30 in 6.2 mi ENE 4.6 mph - N/A   Unknown
4:50 AM 64.4 °F - 57.2 °F 77% 30.30 in 6.2 mi ENE 4.6 mph - N/A   Unknown
5:20 AM 64.4 °F - 55.4 °F 73% 30.30 in 6.2 mi NE 4.6 mph - N/A   Unknown
5:50 AM 64.4 °F - 55.4 °F 73% 30.33 in - Variable 3.5 mph - N/A   Clear
6:20 AM 64.4 °F - 55.4 °F 73% 30.33 in - ENE 3.5 mph - N/A   Clear
6:50 AM 64.4 °F - 57.2 °F 77% 30.33 in - ENE 4.6 mph - N/A   Clear
7:20 AM 66.2 °F - 57.2 °F 73% 30.33 in - ENE 5.8 mph - N/A   Clear
7:50 AM 66.2 °F - 57.2 °F 73% 30.33 in - East 6.9 mph - N/A   Clear
8:20 AM 66.2 °F - 57.2 °F 73% 30.33 in - East 6.9 mph - N/A   Clear
8:50 AM 69.8 °F - 57.2 °F 64% 30.33 in - East 5.8 mph - N/A   Clear
9:20 AM 69.8 °F - 57.2 °F 64% 30.33 in - East 5.8 mph - N/A   Clear
9:50 AM 73.4 °F - 57.2 °F 57% 30.33 in - East 4.6 mph - N/A   Clear
10:20 AM 75.2 °F - 55.4 °F 50% 30.33 in - East 8.1 mph - N/A   Clear
10:50 AM 75.2 °F - 53.6 °F 47% 30.33 in - NE 6.9 mph - N/A   Clear
11:20 AM 77.0 °F - 53.6 °F 44% 30.33 in - ENE 8.1 mph - N/A   Clear
11:50 AM 77.0 °F - 55.4 °F 47% 30.30 in - ENE 8.1 mph - N/A   Clear
12:20 PM 77.0 °F - 55.4 °F 47% 30.33 in - NE 9.2 mph - N/A   Clear
12:50 PM 78.8 °F - 53.6 °F 42% 30.30 in - NNE 10.4 mph - N/A   Clear
1:20 PM 78.8 °F - 53.6 °F 42% 30.30 in - ENE 11.5 mph - N/A   Clear
1:50 PM 80.6 °F 80.3 °F 53.6 °F 39% 30.30 in - NE 9.2 mph - N/A   Clear
2:20 PM 78.8 °F - 53.6 °F 42% 30.30 in - NNE 10.4 mph - N/A   Clear
2:50 PM 80.6 °F - 51.8 °F 37% 30.30 in - NE 9.2 mph - N/A   Clear
3:20 PM 80.6 °F 80.5 °F 55.4 °F 42% 30.30 in - East 10.4 mph - N/A   Clear
3:50 PM 78.8 °F - 59.0 °F 51% 30.30 in 6.2 mi East 12.7 mph - N/A   Partly Cloudy
4:20 PM 78.8 °F - 59.0 °F 51% 30.30 in 6.2 mi ESE 12.7 mph - N/A   Partly Cloudy
4:50 PM 78.8 °F - 59.0 °F 51% 30.30 in 6.2 mi East 13.8 mph - N/A   Partly Cloudy
5:20 PM 77.0 °F - 59.0 °F 54% 30.30 in 6.2 mi ESE 15.0 mph - N/A   Partly Cloudy
5:50 PM 75.2 °F - 59.0 °F 57% 30.30 in - East 13.8 mph - N/A   Clear
6:20 PM 75.2 °F - 57.2 °F 53% 30.30 in - ESE 12.7 mph - N/A   Clear
6:50 PM 73.4 °F - 57.2 °F 57% 30.30 in - East 12.7 mph - N/A   Clear
7:20 PM 71.6 °F - 57.2 °F 60% 30.30 in - East 13.8 mph - N/A   Clear
7:50 PM 69.8 °F - 57.2 °F 64% 30.30 in - ESE 11.5 mph - N/A   Clear
8:20 PM 69.8 °F - 57.2 °F 64% 30.30 in - East 10.4 mph - N/A   Clear
8:50 PM 68.0 °F - 57.2 °F 68% 30.30 in - East 8.1 mph - N/A   Clear
9:20 PM 68.0 °F - 57.2 °F 68% 30.30 in - East 9.2 mph - N/A   Clear
9:50 PM 68.0 °F - 53.6 °F 60% 30.33 in 6.2 mi East 9.2 mph - N/A   Unknown
10:20 PM 66.2 °F - 53.6 °F 64% 30.33 in 6.2 mi East 8.1 mph - N/A   Unknown
10:50 PM 66.2 °F - 53.6 °F 64% 30.33 in 6.2 mi ENE 6.9 mph - N/A   Unknown
11:20 PM 66.2 °F - 53.6 °F 64% 30.33 in 6.2 mi ENE 8.1 mph - N/A   Unknown
11:50 PM 66.2 °F - 53.6 °F 64% 30.33 in 6.2 mi ENE 8.1 mph - N/A   Unknown